Time,TemperatureF,DewpointF,PressureIn,WindDirection,WindDirectionDegrees,WindSpeedMPH,WindSpeedGustMPH,Humidity,HourlyPrecipIn,Conditions,Clouds,dailyrainin,SoftwareType,DateUTC
2013-03-18 00:03:00,72.0,66.0,30.06,SSE,161,16.0,18.0,82,0.00,,,0.00,,2013-03-18 04:03:00,
2013-03-18 00:13:00,72.0,66.0,30.06,SSE,161,16.0,18.0,82,0.00,,,0.00,,2013-03-18 04:13:00,
2013-03-18 00:23:00,72.0,66.0,26.41,SSE,164,15.0,17.0,82,0.00,,,0.00,,2013-03-18 04:23:00,
2013-03-18 00:33:00,72.0,66.0,26.43,SSE,161,14.0,17.0,82,0.00,,,0.00,,2013-03-18 04:33:00,
2013-03-18 00:42:00,72.0,66.0,26.43,SSE,161,14.0,17.0,82,0.00,,,0.00,,2013-03-18 04:42:00,
2013-03-18 00:53:00,72.0,66.0,30.06,SSE,161,14.0,17.0,82,0.00,,,0.00,,2013-03-18 04:53:00,
2013-03-18 01:03:00,72.0,66.0,26.41,SSE,162,13.0,17.0,82,0.00,,,0.00,,2013-03-18 05:03:00,
2013-03-18 01:12:00,72.0,66.0,26.41,SSE,162,13.0,17.0,82,0.00,,,0.00,,2013-03-18 05:12:00,
2013-03-18 01:22:00,72.0,66.0,26.41,SSE,165,15.0,18.0,82,0.00,,,0.00,,2013-03-18 05:22:00,
2013-03-18 01:32:00,72.0,66.0,26.41,South,169,16.0,18.0,82,0.00,,,0.00,,2013-03-18 05:32:00,
2013-03-18 01:43:00,72.0,66.0,26.41,South,169,16.0,18.0,82,0.00,,,0.00,,2013-03-18 05:43:00,
2013-03-18 01:52:00,72.0,66.0,26.41,South,169,15.0,19.0,82,0.00,,,0.00,,2013-03-18 05:52:00,
2013-03-18 02:02:00,72.0,66.0,26.41,South,176,18.0,20.0,82,0.00,,,0.00,,2013-03-18 06:02:00,
2013-03-18 02:12:00,72.0,66.0,26.41,South,176,18.0,20.0,82,0.00,,,0.00,,2013-03-18 06:12:00,
2013-03-18 02:22:00,72.0,66.0,26.41,South,178,18.0,21.0,81,0.00,,,0.00,,2013-03-18 06:22:00,
2013-03-18 02:32:00,72.0,66.0,26.41,South,175,18.0,21.0,81,0.00,,,0.00,,2013-03-18 06:32:00,
2013-03-18 02:42:00,72.0,66.0,26.41,South,175,18.0,21.0,81,0.00,,,0.00,,2013-03-18 06:42:00,
2013-03-18 02:53:00,72.0,66.0,26.41,South,177,17.0,21.0,81,0.00,,,0.00,,2013-03-18 06:53:00,
2013-03-18 03:02:00,72.0,66.0,30.01,South,173,19.0,23.0,81,0.00,,,0.00,,2013-03-18 07:02:00,
2013-03-18 03:12:00,72.0,66.0,30.01,South,173,19.0,23.0,81,0.00,,,0.00,,2013-03-18 07:12:00,
2013-03-18 03:22:00,72.0,65.0,30.00,South,172,19.0,22.0,80,0.00,,,0.00,,2013-03-18 07:22:00,
2013-03-18 03:33:00,72.0,65.0,30.00,SSE,168,18.0,22.0,80,0.00,,,0.00,,2013-03-18 07:33:00,
2013-03-18 03:42:00,72.0,65.0,30.00,SSE,168,18.0,22.0,80,0.00,,,0.00,,2013-03-18 07:42:00,
2013-03-18 03:53:00,72.0,66.0,30.00,South,171,20.0,23.0,81,0.00,,,0.00,,2013-03-18 07:53:00,
2013-03-18 04:02:00,72.0,65.0,26.44,SSE,161,17.0,22.0,80,0.00,,,0.00,,2013-03-18 08:02:00,
2013-03-18 04:12:00,72.0,65.0,26.44,SSE,161,17.0,22.0,80,0.00,,,0.00,,2013-03-18 08:12:00,
2013-03-18 04:22:00,72.0,66.0,26.43,South,169,18.0,21.0,81,0.00,,,0.00,,2013-03-18 08:22:00,
2013-03-18 04:32:00,72.0,65.0,26.43,SSE,165,17.0,21.0,80,0.00,,,0.00,,2013-03-18 08:32:00,
2013-03-18 04:43:00,72.0,65.0,26.43,SSE,165,17.0,21.0,80,0.00,,,0.00,,2013-03-18 08:43:00,
2013-03-18 04:53:00,72.0,66.0,26.42,SSE,160,17.0,21.0,81,0.00,,,0.00,,2013-03-18 08:53:00,
2013-03-18 05:02:00,72.0,66.0,30.00,SSE,165,16.0,19.0,81,0.00,,,0.00,,2013-03-18 09:02:00,
2013-03-18 05:12:00,72.0,66.0,30.00,SSE,165,16.0,19.0,81,0.00,,,0.00,,2013-03-18 09:12:00,
2013-03-18 05:22:00,72.0,66.0,30.00,SSE,161,17.0,18.0,82,0.00,,,0.00,,2013-03-18 09:22:00,
2013-03-18 05:33:00,72.0,66.0,30.00,SSE,154,16.0,19.0,82,0.00,,,0.00,,2013-03-18 09:33:00,
2013-03-18 05:43:00,72.0,66.0,30.00,SSE,154,16.0,19.0,82,0.00,,,0.00,,2013-03-18 09:43:00,
2013-03-18 05:53:00,72.0,67.0,30.00,SSE,163,16.0,19.0,83,0.00,,,0.00,,2013-03-18 09:53:00,
2013-03-18 06:03:00,72.0,67.0,30.00,SSE,160,18.0,19.0,83,0.00,,,0.00,,2013-03-18 10:03:00,
2013-03-18 06:13:00,72.0,67.0,30.00,SSE,160,18.0,19.0,83,0.00,,,0.00,,2013-03-18 10:13:00,
2013-03-18 06:23:00,72.0,67.0,30.00,SSE,155,17.0,20.0,84,0.00,,,0.00,,2013-03-18 10:23:00,
2013-03-18 06:33:00,72.0,67.0,30.01,SSE,162,17.0,19.0,84,0.00,,,0.00,,2013-03-18 10:33:00,
2013-03-18 06:42:00,72.0,67.0,30.01,SSE,162,17.0,19.0,84,0.00,,,0.00,,2013-03-18 10:42:00,
2013-03-18 06:53:00,72.0,67.0,30.01,SSE,163,16.0,19.0,85,0.00,,,0.00,,2013-03-18 10:53:00,
2013-03-18 07:03:00,72.0,67.0,30.01,SSE,165,15.0,18.0,85,0.00,,,0.00,,2013-03-18 11:03:00,
2013-03-18 07:13:00,72.0,67.0,30.01,SSE,165,15.0,18.0,85,0.00,,,0.00,,2013-03-18 11:13:00,
2013-03-18 07:22:00,72.0,67.0,30.02,SSE,162,15.0,19.0,85,0.00,,,0.00,,2013-03-18 11:22:00,
2013-03-18 07:32:00,72.0,67.0,30.02,SSE,164,15.0,19.0,85,0.00,,,0.00,,2013-03-18 11:32:00,
2013-03-18 07:42:00,72.0,67.0,30.02,SSE,164,15.0,19.0,85,0.00,,,0.00,,2013-03-18 11:42:00,
2013-03-18 07:53:00,72.0,68.0,26.42,SSE,163,16.0,19.0,86,0.00,,,0.00,,2013-03-18 11:53:00,
2013-03-18 08:03:00,72.0,68.0,26.42,SSE,168,17.0,21.0,86,0.00,,,0.00,,2013-03-18 12:03:00,
2013-03-18 08:12:00,72.0,68.0,26.42,SSE,168,17.0,21.0,86,0.00,,,0.00,,2013-03-18 12:12:00,
2013-03-18 08:22:00,72.0,68.0,26.41,SSE,168,16.0,20.0,87,0.00,,,0.00,,2013-03-18 12:22:00,
2013-03-18 08:32:00,72.0,68.0,26.41,SSE,163,17.0,20.0,87,0.00,,,0.00,,2013-03-18 12:32:00,
2013-03-18 08:43:00,72.0,68.0,26.41,SSE,163,17.0,20.0,87,0.00,,,0.00,,2013-03-18 12:43:00,
2013-03-18 08:52:00,73.0,69.0,30.03,SSE,166,17.0,20.0,87,0.00,,,0.00,,2013-03-18 12:52:00,
2013-03-18 09:02:00,73.0,69.0,31.43,SSE,164,17.0,20.0,86,0.00,,,0.00,,2013-03-18 13:02:00,
2013-03-18 09:12:00,73.0,69.0,31.43,SSE,164,17.0,20.0,86,0.00,,,0.00,,2013-03-18 13:12:00,
2013-03-18 09:22:00,74.0,69.0,30.04,SSE,167,17.0,19.0,85,0.00,,,0.00,,2013-03-18 13:22:00,
2013-03-18 09:33:00,74.0,69.0,30.67,South,169,15.0,19.0,85,0.00,,,0.00,,2013-03-18 13:33:00,
2013-03-18 09:42:00,74.0,69.0,30.67,South,169,15.0,19.0,85,0.00,,,0.00,,2013-03-18 13:42:00,
2013-03-18 09:52:00,75.0,69.0,30.17,SSE,168,16.0,19.0,83,0.00,,,0.00,,2013-03-18 13:52:00,
2013-03-18 10:02:00,75.0,69.0,25.58,SSE,168,16.0,19.0,81,0.00,,,0.00,,2013-03-18 14:02:00,
2013-03-18 10:12:00,75.0,69.0,25.58,SSE,168,16.0,19.0,81,0.00,,,0.00,,2013-03-18 14:12:00,
2013-03-18 10:22:00,77.0,70.0,26.41,South,169,15.0,19.0,78,0.00,,,0.00,,2013-03-18 14:22:00,
2013-03-18 10:32:00,77.0,70.0,26.41,South,169,13.0,18.0,78,0.00,,,0.00,,2013-03-18 14:32:00,
2013-03-18 10:42:00,77.0,70.0,26.41,South,169,13.0,18.0,78,0.00,,,0.00,,2013-03-18 14:42:00,
2013-03-18 10:52:00,77.0,69.0,25.64,South,169,17.0,18.0,77,0.00,,,0.00,,2013-03-18 14:52:00,
2013-03-18 11:02:00,77.0,69.0,25.64,South,172,17.0,19.0,77,0.00,,,0.00,,2013-03-18 15:02:00,
2013-03-18 11:12:00,77.0,69.0,25.64,South,172,17.0,19.0,77,0.00,,,0.00,,2013-03-18 15:12:00,
2013-03-18 11:22:00,77.0,69.0,25.64,South,172,16.0,19.0,77,0.00,,,0.00,,2013-03-18 15:22:00,
2013-03-18 11:33:00,78.0,70.0,25.64,South,173,15.0,18.0,76,0.00,,,0.00,,2013-03-18 15:33:00,
2013-03-18 11:43:00,78.0,70.0,25.64,South,173,15.0,18.0,76,0.00,,,0.00,,2013-03-18 15:43:00,
2013-03-18 11:52:00,78.0,69.0,25.64,South,177,19.0,22.0,74,0.00,,,0.00,,2013-03-18 15:52:00,
2013-03-18 12:03:00,78.0,69.0,30.04,South,184,18.0,27.0,75,0.00,,,0.00,,2013-03-18 16:03:00,
2013-03-18 12:12:00,78.0,69.0,30.04,South,184,18.0,27.0,75,0.00,,,0.00,,2013-03-18 16:12:00,
2013-03-18 12:23:00,79.0,70.0,30.04,South,178,22.0,24.0,73,0.00,,,0.00,,2013-03-18 16:23:00,
2013-03-18 12:33:00,79.0,70.0,26.41,South,186,23.0,26.0,73,0.00,,,0.00,,2013-03-18 16:33:00,
2013-03-18 12:42:00,79.0,70.0,26.41,South,186,23.0,26.0,73,0.00,,,0.00,,2013-03-18 16:42:00,
2013-03-18 12:53:00,79.0,70.0,26.41,South,184,22.0,26.0,73,0.00,,,0.00,,2013-03-18 16:53:00,
2013-03-18 13:02:00,79.0,70.0,26.41,South,181,22.0,27.0,73,0.00,,,0.00,,2013-03-18 17:02:00,
2013-03-18 13:12:00,79.0,70.0,26.41,South,181,22.0,27.0,73,0.00,,,0.00,,2013-03-18 17:12:00,
2013-03-18 13:22:00,79.0,69.0,21.05,South,186,23.0,27.0,71,0.00,,,0.00,,2013-03-18 17:22:00,
2013-03-18 13:32:00,80.0,70.0,30.01,South,186,21.0,25.0,71,0.00,,,0.00,,2013-03-18 17:32:00,
2013-03-18 13:42:00,80.0,70.0,30.01,South,186,21.0,25.0,71,0.00,,,0.00,,2013-03-18 17:42:00,
2013-03-18 13:52:00,79.0,70.0,30.01,South,186,19.0,23.0,73,0.00,,,0.00,,2013-03-18 17:52:00,
2013-03-18 14:02:00,80.0,70.0,30.00,SSW,192,17.0,23.0,71,0.00,,,0.00,,2013-03-18 18:02:00,
2013-03-18 14:12:00,80.0,70.0,30.00,SSW,192,17.0,23.0,71,0.00,,,0.00,,2013-03-18 18:12:00,
2013-03-18 14:22:00,81.0,70.0,26.57,South,186,19.0,22.0,70,0.00,,,0.00,,2013-03-18 18:22:00,
2013-03-18 14:32:00,81.0,70.0,26.57,SSW,192,19.0,22.0,70,0.00,,,0.00,,2013-03-18 18:32:00,
2013-03-18 14:42:00,81.0,70.0,26.57,SSW,192,19.0,22.0,70,0.00,,,0.00,,2013-03-18 18:42:00,
2013-03-18 14:52:00,81.0,71.0,29.98,South,190,17.0,21.0,71,0.00,,,0.00,,2013-03-18 18:52:00,
2013-03-18 15:02:00,81.0,71.0,29.98,South,190,16.0,21.0,71,0.00,,,0.00,,2013-03-18 19:02:00,
2013-03-18 15:12:00,81.0,71.0,29.98,South,190,16.0,21.0,71,0.00,,,0.00,,2013-03-18 19:12:00,
2013-03-18 15:22:00,81.0,70.0,28.15,SSW,192,18.0,20.0,70,0.00,,,0.00,,2013-03-18 19:22:00,
2013-03-18 15:33:00,80.0,70.0,28.15,South,190,20.0,22.0,71,0.00,,,0.00,,2013-03-18 19:33:00,
2013-03-18 15:42:00,80.0,70.0,28.15,South,190,20.0,22.0,71,0.00,,,0.00,,2013-03-18 19:42:00,
2013-03-18 15:52:00,80.0,70.0,31.61,SSW,200,14.0,21.0,72,0.00,,,0.00,,2013-03-18 19:52:00,
2013-03-18 16:02:00,80.0,70.0,31.61,SSW,200,12.0,19.0,72,0.00,,,0.00,,2013-03-18 20:02:00,
2013-03-18 16:12:00,80.0,70.0,31.61,SSW,200,12.0,19.0,72,0.00,,,0.00,,2013-03-18 20:12:00,
2013-03-18 16:23:00,79.0,70.0,26.57,SSW,204,11.0,17.0,74,0.00,,,0.00,,2013-03-18 20:23:00,
2013-03-18 16:33:00,79.0,70.0,26.57,SW,220,9.0,15.0,74,0.00,,,0.00,,2013-03-18 20:33:00,
2013-03-18 16:42:00,79.0,70.0,26.57,SW,220,9.0,15.0,74,0.00,,,0.00,,2013-03-18 20:42:00,
2013-03-18 16:52:00,79.0,70.0,26.57,SSW,204,5.0,9.0,74,0.00,,,0.00,,2013-03-18 20:52:00,
2013-03-18 17:02:00,79.0,70.0,26.41,SSW,198,6.0,11.0,75,0.00,,,0.00,,2013-03-18 21:02:00,
2013-03-18 17:12:00,79.0,70.0,26.41,SSW,198,6.0,11.0,75,0.00,,,0.00,,2013-03-18 21:12:00,
2013-03-18 17:22:00,79.0,70.0,26.44,SSW,192,10.0,12.0,75,0.00,,,0.00,,2013-03-18 21:22:00,
2013-03-18 17:32:00,78.0,70.0,29.97,South,188,10.0,12.0,77,0.00,,,0.00,,2013-03-18 21:32:00,
2013-03-18 17:43:00,78.0,70.0,29.97,South,188,10.0,12.0,77,0.00,,,0.00,,2013-03-18 21:43:00,
2013-03-18 17:53:00,78.0,71.0,29.96,South,170,10.0,11.0,78,0.00,,,0.00,,2013-03-18 21:53:00,
2013-03-18 18:03:00,78.0,71.0,32.12,South,173,11.0,12.0,78,0.00,,,0.00,,2013-03-18 22:03:00,
2013-03-18 18:13:00,78.0,71.0,32.12,South,173,11.0,12.0,78,0.00,,,0.00,,2013-03-18 22:13:00,
2013-03-18 18:23:00,77.0,70.0,29.97,South,183,9.0,12.0,80,0.00,,,0.00,,2013-03-18 22:23:00,
2013-03-18 18:33:00,77.0,71.0,29.97,South,184,6.0,10.0,81,0.00,,,0.00,,2013-03-18 22:33:00,
2013-03-18 18:42:00,77.0,71.0,29.97,South,184,6.0,10.0,81,0.00,,,0.00,,2013-03-18 22:42:00,
2013-03-18 18:53:00,77.0,71.0,26.41,South,177,5.0,6.0,82,0.00,,,0.00,,2013-03-18 22:53:00,
2013-03-18 19:03:00,77.0,71.0,26.41,South,177,0.0,7.0,82,0.00,,,0.00,,2013-03-18 23:03:00,
2013-03-18 19:12:00,77.0,71.0,26.41,South,177,0.0,7.0,82,0.00,,,0.00,,2013-03-18 23:12:00,
2013-03-18 19:23:00,77.0,71.0,26.43,SSE,166,4.0,5.0,82,0.00,,,0.00,,2013-03-18 23:23:00,
2013-03-18 19:32:00,77.0,71.0,26.41,SSE,166,4.0,6.0,82,0.00,,,0.00,,2013-03-18 23:32:00,
2013-03-18 19:42:00,77.0,71.0,26.41,SSE,166,4.0,6.0,82,0.00,,,0.00,,2013-03-18 23:42:00,
2013-03-18 19:53:00,76.0,70.0,26.42,SSE,166,0.0,3.0,83,0.00,,,0.00,,2013-03-18 23:53:00,
2013-03-18 20:02:00,76.0,70.0,26.42,SSE,165,0.0,0.0,83,0.00,,,0.00,,2013-03-19 00:02:00,
2013-03-18 20:12:00,76.0,70.0,26.42,SSE,165,0.0,0.0,83,0.00,,,0.00,,2013-03-19 00:12:00,
2013-03-18 20:23:00,75.0,70.0,26.42,SSE,159,0.0,0.0,85,0.00,,,0.00,,2013-03-19 00:23:00,
2013-03-18 20:32:00,75.0,71.0,26.42,SSE,159,0.0,2.0,86,0.00,,,0.00,,2013-03-19 00:32:00,
2013-03-18 20:42:00,75.0,71.0,26.42,SSE,159,0.0,2.0,86,0.00,,,0.00,,2013-03-19 00:42:00,
2013-03-18 20:52:00,75.0,71.0,26.41,SSE,159,0.0,0.0,87,0.00,,,0.00,,2013-03-19 00:52:00,
2013-03-18 21:02:00,74.0,70.0,26.41,SSE,159,0.0,0.0,88,0.00,,,0.00,,2013-03-19 01:02:00,
2013-03-18 21:12:00,74.0,70.0,26.41,SSE,159,0.0,0.0,88,0.00,,,0.00,,2013-03-19 01:12:00,
2013-03-18 21:22:00,74.0,71.0,26.41,SSE,159,0.0,0.0,89,0.00,,,0.00,,2013-03-19 01:22:00,
2013-03-18 21:32:00,74.0,71.0,26.41,SSE,159,0.0,0.0,89,0.00,,,0.00,,2013-03-19 01:32:00,
2013-03-18 21:42:00,74.0,71.0,26.41,SSE,159,0.0,0.0,89,0.00,,,0.00,,2013-03-19 01:42:00,
2013-03-18 21:52:00,74.0,71.0,26.41,SSE,159,0.0,0.0,89,0.00,,,0.00,,2013-03-19 01:52:00,
2013-03-18 22:03:00,74.0,71.0,26.41,SSE,156,0.0,3.0,90,0.00,,,0.00,,2013-03-19 02:03:00,
2013-03-18 22:12:00,74.0,71.0,26.41,SSE,156,0.0,3.0,90,0.00,,,0.00,,2013-03-19 02:12:00,
2013-03-18 22:22:00,74.0,71.0,26.41,SSE,156,0.0,4.0,90,0.00,,,0.00,,2013-03-19 02:22:00,
2013-03-18 22:33:00,74.0,71.0,26.47,SSE,156,0.0,0.0,90,0.00,,,0.00,,2013-03-19 02:33:00,
2013-03-18 22:42:00,74.0,71.0,26.47,SSE,156,0.0,0.0,90,0.00,,,0.00,,2013-03-19 02:42:00,
2013-03-18 22:53:00,74.0,71.0,26.41,SSE,156,0.0,0.0,91,0.00,,,0.00,,2013-03-19 02:53:00,
2013-03-18 23:02:00,74.0,71.0,26.41,SSE,156,0.0,0.0,91,0.00,,,0.00,,2013-03-19 03:02:00,
2013-03-18 23:12:00,74.0,71.0,26.41,SSE,156,0.0,0.0,91,0.00,,,0.00,,2013-03-19 03:12:00,
2013-03-18 23:22:00,73.0,70.0,29.98,SSE,156,0.0,0.0,91,0.00,,,0.00,,2013-03-19 03:22:00,
2013-03-18 23:33:00,73.0,70.0,29.99,SSE,156,0.0,3.0,91,0.00,,,0.00,,2013-03-19 03:33:00,
2013-03-18 23:43:00,73.0,70.0,29.99,SSE,156,0.0,3.0,91,0.00,,,0.00,,2013-03-19 03:43:00,
2013-03-18 23:54:00,73.0,71.0,26.41,SSE,155,0.0,0.0,92,0.00,,,0.00,,2013-03-19 03:54:00,